Weather History for Reno - Stead, NV

Change the Weather History Date:

Sunday, September 8, 2013

  Actual Average (KRNO) Record (KRNO)
Temperature  
Mean Temperature 65 °F 68 °F  
Max Temperature 86 °F 85 °F 96 °F (1944)
Min Temperature 44 °F 51 °F 31 °F (1966)
Degree Days  
Heating Degree Days 0 1  
Month to date heating degree days 8  
Since 1 July heating degree days 18  
Cooling Degree Days 0 4  
Month to date cooling degree days 37  
Year to date cooling degree days 783  
Growing Degree Days 15 (Base 50)    
Moisture  
Dew Point 29 °F    
Average Humidity 29    
Maximum Humidity 57    
Minimum Humidity 9    
Precipitation  
Precipitation 0.00 in 0.01 in 0.09 in (1980)
Month to date precipitation 0.06  
Year to date precipitation 4.75  
Snow  
Snow 0.00 in 0.00 in 0.00 in ()
Month to date snowfall 0.0  
Since 1 July snowfall 0.0  
Since 1 September snowfall 0.0  
Snow Depth -    
Sea Level Pressure  
Sea Level Pressure 30.09 in    
Wind  
Wind Speed 5 mph (NW)    
Max Wind Speed 20 mph    
Max Gust Speed 28 mph    
Visibility 10 miles    
Events      
T = Trace of Precipitation, MM = Missing Value Source: NWS Daily Summary

Daily Weather History Graph

Daily Weather History Graph

Search for Another Location

Airport:

Trip Planner

Search our weather history database for the weather conditions in past years. The results will help you decide how hot, cold, wet, or windy it might be!

Date:

Astronomy

Sep. 08, 2013 Rise Set
Actual Time 6:34 AM PDT 7:18 PM PDT
Civil Twilight 6:07 AM PDT 7:46 PM PDT
Nautical Twilight 5:34 AM PDT 8:18 PM PDT
Astronomical Twilight 5:01 AM PDT 8:51 PM PDT
Moon 9:56 AM PDT (9/8) 8:58 PM PDT (9/8)
Length of Visible Light 13h 39m
Length of Day
12h 44m
Waxing Crescent, 12% of the Moon is Illuminated
Sep 8
Waxing Crescent
Sep 12
First Quarter
Sep 19
Full
Sep 26
Last Quarter
Oct 4
New

Hourly Weather History & Observations

Time (PDT) Temp. Windchill Dew Point Humidity Pressure Visibility Wind Dir Wind Speed Gust Speed Precip Events Conditions
12:15 AM 59.0 °F - 35.6 °F 42% 30.13 in 10.0 mi Calm Calm - N/A   Clear
12:35 AM 59.0 °F - 33.8 °F 39% 30.13 in 10.0 mi NNW 5.8 mph - N/A   Clear
12:55 AM 55.4 °F - 32.0 °F 41% 30.13 in 10.0 mi North 5.8 mph - N/A   Clear
1:15 AM 53.6 °F - 32.0 °F 44% 30.13 in 10.0 mi NW 5.8 mph - N/A   Clear
1:35 AM 51.8 °F - 32.0 °F 47% 30.12 in 10.0 mi North 4.6 mph - N/A   Clear
1:55 AM 53.6 °F - 32.0 °F 44% 30.12 in 10.0 mi North 6.9 mph - N/A   Clear
2:15 AM 53.6 °F - 32.0 °F 44% 30.12 in 10.0 mi NNW 4.6 mph - N/A   Clear
2:35 AM 50.0 °F - 32.0 °F 50% 30.12 in 10.0 mi North 9.2 mph - N/A   Clear
2:55 AM 50.0 °F - 30.2 °F 47% 30.12 in 10.0 mi NNW 3.5 mph - N/A   Clear
3:15 AM 48.2 °F - 28.4 °F 46% 30.12 in 10.0 mi NNE 4.6 mph - N/A   Clear
3:35 AM 46.4 °F 43.5 °F 28.4 °F 50% 30.12 in 10.0 mi NNW 5.8 mph - N/A   Clear
3:55 AM 48.2 °F - 30.2 °F 50% 30.12 in 10.0 mi North 4.6 mph - N/A   Clear
4:15 AM 48.2 °F - 30.2 °F 50% 30.12 in 10.0 mi NW 4.6 mph - N/A   Clear
4:35 AM 46.4 °F - 28.4 °F 50% 30.12 in 10.0 mi Calm Calm - N/A   Clear
4:55 AM 48.2 °F - 30.2 °F 50% 30.12 in 10.0 mi Calm Calm - N/A   Clear
5:15 AM 46.4 °F 45.2 °F 30.2 °F 53% 30.13 in 10.0 mi NW 3.5 mph - N/A   Clear
5:35 AM 46.4 °F 44.3 °F 30.2 °F 53% 30.13 in 10.0 mi NW 4.6 mph - N/A   Clear
5:55 AM 46.4 °F 44.3 °F 32.0 °F 57% 30.13 in 10.0 mi North 4.6 mph - N/A   Clear
6:15 AM 48.2 °F - 32.0 °F 54% 30.12 in 10.0 mi NNW 3.5 mph - N/A   Clear
6:35 AM 46.4 °F - 32.0 °F 57% 30.13 in 10.0 mi Calm Calm - N/A   Clear
6:55 AM 44.6 °F - 30.2 °F 57% 30.13 in 10.0 mi Calm Calm - N/A   Clear
7:15 AM 48.2 °F - 32.0 °F 54% 30.13 in 10.0 mi Calm Calm - N/A   Clear
7:35 AM 48.2 °F - 32.0 °F 54% 30.14 in 10.0 mi Calm Calm - N/A   Clear
7:55 AM 50.0 °F - 32.0 °F 50% 30.14 in 10.0 mi Calm Calm - N/A   Clear
8:15 AM 55.4 °F - 32.0 °F 41% 30.14 in 10.0 mi Calm Calm - N/A   Clear
8:35 AM 59.0 °F - 32.0 °F 36% 30.14 in 10.0 mi Calm Calm - N/A   Clear
8:55 AM 62.6 °F - 33.8 °F 34% 30.14 in 10.0 mi Calm Calm - N/A   Clear
9:15 AM 64.4 °F - 33.8 °F 32% 30.13 in 10.0 mi Calm Calm - N/A   Clear
9:35 AM 68.0 °F - 33.8 °F 28% 30.13 in 10.0 mi Calm Calm - N/A   Clear
9:55 AM 68.0 °F - 32.0 °F 26% 30.13 in 10.0 mi Calm Calm - N/A   Unknown
10:15 AM 71.6 °F - 32.0 °F 23% 30.12 in 10.0 mi Calm Calm - N/A   Clear
10:35 AM 73.4 °F - 32.0 °F 22% 30.12 in 10.0 mi ESE 4.6 mph - N/A   Clear
10:55 AM 75.2 °F - 30.2 °F 19% 30.12 in 10.0 mi SE 5.8 mph - N/A   Clear
11:15 AM 75.2 °F - 30.2 °F 19% 30.11 in 10.0 mi Calm Calm - N/A   Clear
11:35 AM 77.0 °F - 30.2 °F 18% 30.11 in 10.0 mi ESE 4.6 mph - N/A   Clear
11:55 AM 78.8 °F - 28.4 °F 16% 30.10 in 10.0 mi ESE 4.6 mph - N/A   Clear
12:15 PM 80.6 °F - 28.4 °F 15% 30.09 in 10.0 mi WSW 5.8 mph - N/A   Clear
12:35 PM 80.6 °F - 28.4 °F 15% 30.08 in 10.0 mi ESE 4.6 mph - N/A   Clear
12:55 PM 82.4 °F - 28.4 °F 14% 30.08 in 10.0 mi WNW 11.5 mph 16.1 mph N/A   Clear
1:15 PM 82.4 °F - 28.4 °F 14% 30.07 in 10.0 mi NW 12.7 mph 20.7 mph N/A   Clear
1:35 PM 82.4 °F - 28.4 °F 14% 30.07 in 10.0 mi West 4.6 mph 16.1 mph N/A   Clear
1:55 PM 84.2 °F - 28.4 °F 13% 30.06 in 10.0 mi NNW 12.7 mph 23.0 mph N/A   Clear
2:15 PM 86.0 °F - 28.4 °F 12% 30.05 in 10.0 mi North 9.2 mph 17.3 mph N/A   Clear
2:35 PM 84.2 °F - 26.6 °F 12% 30.04 in 10.0 mi NW 16.1 mph 24.2 mph N/A   Clear
2:55 PM 84.2 °F - 26.6 °F 12% 30.04 in 10.0 mi NNW 16.1 mph 20.7 mph N/A   Clear
3:15 PM 84.2 °F - 26.6 °F 12% 30.04 in 10.0 mi NNW 10.4 mph 23.0 mph N/A   Clear
3:35 PM 84.2 °F - 24.8 °F 11% 30.03 in 10.0 mi North 17.3 mph 21.9 mph N/A   Clear
3:55 PM 84.2 °F - 23.0 °F 11% 30.03 in 10.0 mi NNW 18.4 mph 25.3 mph N/A   Clear
4:15 PM 84.2 °F - 23.0 °F 11% 30.02 in 10.0 mi NW 19.6 mph 27.6 mph N/A   Clear
4:35 PM 84.2 °F - 23.0 °F 11% 30.02 in 10.0 mi NW 17.3 mph 25.3 mph N/A   Clear
4:55 PM 84.2 °F - 23.0 °F 11% 30.02 in 10.0 mi NNW 10.4 mph 19.6 mph N/A   Clear
5:15 PM 84.2 °F - 21.2 °F 10% 30.02 in 10.0 mi NW 10.4 mph 18.4 mph N/A   Clear
5:35 PM 84.2 °F - 19.4 °F 9% 30.02 in 10.0 mi WNW 13.8 mph 20.7 mph N/A   Clear
5:55 PM 84.2 °F - 19.4 °F 9% 30.02 in 10.0 mi WNW 9.2 mph 18.4 mph N/A   Clear
6:15 PM 82.4 °F - 23.0 °F 11% 30.02 in 10.0 mi WNW 11.5 mph 16.1 mph N/A   Clear
6:35 PM 82.4 °F - 23.0 °F 11% 30.02 in 10.0 mi WNW 13.8 mph - N/A   Clear
6:55 PM 80.6 °F - 23.0 °F 12% 30.02 in 10.0 mi WNW 12.7 mph - N/A   Clear
7:15 PM 77.0 °F - 24.8 °F 14% 30.03 in 10.0 mi WNW 9.2 mph - N/A   Clear
7:35 PM 75.2 °F - 24.8 °F 15% 30.03 in 10.0 mi WNW 10.4 mph - N/A   Clear
7:55 PM 73.4 °F - 24.8 °F 16% 30.04 in 10.0 mi WNW 9.2 mph - N/A   Clear
8:15 PM 68.0 °F - 24.8 °F 20% 30.05 in 10.0 mi WNW 5.8 mph - N/A   Clear
8:35 PM 68.0 °F - 24.8 °F 20% 30.05 in 10.0 mi NNW 5.8 mph - N/A   Clear
8:55 PM 68.0 °F - 24.8 °F 20% 30.06 in 10.0 mi NNW 5.8 mph - N/A   Clear
9:15 PM 66.2 °F - 24.8 °F 21% 30.06 in 10.0 mi North 6.9 mph - N/A   Clear
9:35 PM 68.0 °F - 26.6 °F 21% 30.06 in 10.0 mi NW 6.9 mph - N/A   Clear
9:55 PM 68.0 °F - 26.6 °F 21% 30.06 in 10.0 mi NW 10.4 mph - N/A   Clear
10:15 PM 68.0 °F - 26.6 °F 21% 30.07 in 10.0 mi NW 8.1 mph - N/A   Clear
10:35 PM 66.2 °F - 28.4 °F 24% 30.07 in 10.0 mi West 8.1 mph - N/A   Clear
10:55 PM 68.0 °F - 28.4 °F 23% 30.07 in 10.0 mi NW 8.1 mph - N/A   Clear
11:15 PM 66.2 °F - 28.4 °F 24% 30.07 in 10.0 mi NW 9.2 mph - N/A   Clear
11:35 PM 66.2 °F - 30.2 °F 26% 30.07 in 10.0 mi NW 5.8 mph - N/A   Clear
11:55 PM 64.4 °F - 30.2 °F 28% 30.07 in 10.0 mi NW 10.4 mph - N/A   Clear